• Join FlightAware (Why Join?)
  • Login
  • US Flag 
04:23AM EST


 

Airport Tracker/Info


-or-


 

Live Flight TrackerFlight Track Log ✈ SWA554 ✈ 05-Apr-2013 ✈ KBWI - KMHT

Flight Track Log - Related Links

Times and Time Zones

All times are in EDT time to prevent confusion due to time zone crossing. See the SWA554 flight status page for this flight to view local times or setup timezone preferences in your user account.

Time Position Orientation Groundspeed Altitude Reporting Facility
EDT Latitude Longitude Course Direction KTS MPH feet Rate Location/Type
05:21PM 39.1667 -76.7333 218° Southwest 173 199 2,200  Level Potomac TRACON
05:22PM 39.1500 -76.7500 218° Southwest 236 272 4,300 2,160 Climbing Potomac TRACON
05:23PM 39.1000 -76.6833 134° Southeast 276 318 6,400 2,640 Climbing Potomac TRACON
05:25PM 39.1311 -76.4719 79° East 332 382 12,100 3,000 Climbing Washington Center
05:26PM 39.1467 -76.3408 81° East 339 390 15,300 3,060 Climbing Washington Center
05:27PM 39.1597 -76.2047 83° East 366 421 18,300 2,940 Climbing Washington Center
05:28PM 39.1750 -76.0600 82° East 393 452 21,200 2,340 Climbing Washington Center
05:29PM 39.1900 -75.9103 83° East 408 470 23,000 1,560 Climbing Washington Center
05:30PM 39.2611 -75.7872 53° Northeast 399 459 24,400 1,740 Climbing Washington Center
05:31PM 39.3531 -75.6722 44° Northeast 422 486 26,500 2,040 Climbing Washington Center
05:32PM 39.4469 -75.5539 44° Northeast 438 504 28,500 1,740 Climbing Washington Center
05:33PM 39.5406 -75.4300 46° Northeast 459 528 30,000 1,440 Climbing Washington Center
05:34PM 39.6381 -75.3033 45° Northeast 469 540 31,400 1,200 Climbing Washington Center
05:35PM 39.7358 -75.1653 47° Northeast 491 565 32,400 1,020 Climbing Washington Center
05:35PM 39.7950 -75.0803 48° Northeast 516 594 33,100 1,140 Climbing New York Center
05:36PM 39.8853 -74.9478 48° Northeast 532 612 34,300 1,440 Climbing New York Center
05:37PM 39.9969 -74.7947 46° Northeast 532 612 36,100 1,320 Climbing New York Center
05:38PM 40.1189 -74.7039 30° Northeast 518 596 37,000 360 Climbing New York Center
05:39PM 40.2622 -74.6578 14° North 503 579 36,900  Descending New York Center
05:40PM 40.3969 -74.6108 15° North 503 579 37,000  Climbing New York Center
05:41PM 40.5339 -74.5667 14° North 503 579 37,000  Level New York Center
05:42PM 40.6686 -74.5222 14° North 497 572 37,000  Level New York Center
05:45PM 40.9700 -74.4194 14° North 487 560 37,000  Level Boston Center
05:46PM 41.1000 -74.3792 13° North 482 555 37,000  Level Boston Center
05:47PM 41.2089 -74.3411 15° North 482 555 37,000  Level Boston Center
05:48PM 41.3600 -74.2875 15° North 476 548 37,000  Level Boston Center
05:49PM 41.4878 -74.2414 15° North 470 541 37,000 -780 Level Boston Center
05:50PM 41.6219 -74.2008 13° North 470 541 35,500 -1,680 Descending Boston Center
05:51PM 41.7517 -74.1569 14° North 475 547 33,600 -1,920 Descending Boston Center
05:52PM 41.8650 -74.1156 15° North 475 547 31,800 -1,920 Descending Boston Center
05:53PM 42.0261 -74.0639 13° North 480 552 29,500 -1,860 Descending Boston Center
05:54PM 42.1289 -74.0272 15° North 485 558 27,700 -2,580 Descending Boston Center
05:55PM 42.2858 -73.9697 15° North 485 558 24,300 -1,860 Descending Boston Center
05:56PM 42.3933 -73.8794 32° Northeast 461 531 24,000 -660 Descending Boston Center
05:57PM 42.4392 -73.7144 69° East 431 496 23,100 -1,020 Descending Boston Center
05:58PM 42.4825 -73.5464 71° East 436 502 22,100 -1,020 Descending Boston Center
05:59PM 42.5236 -73.3867 71° East 448 516 21,100 -1,080 Descending Boston Center
06:00PM 42.5708 -73.2014 71° East 459 528 20,000 -1,080 Descending Boston Center
06:01PM 42.6072 -73.0408 73° East 454 522 19,000 -540 Descending Boston Center
06:02PM 42.6475 -72.8889 70° East 438 504 19,000 -540 Level Boston Center
06:03PM 42.6772 -72.7281 76° East 438 504 18,000 -1,200 Descending Boston Center
06:04PM 42.7047 -72.5728 76° East 427 491 16,600 -1,740 Descending Boston Center
06:05PM 42.7317 -72.4258 76° East 414 476 14,600 -1,860 Descending Boston Center
06:06PM 42.7547 -72.3100 75° East 401 461 13,000 -1,860 Descending Boston Center
06:07PM 42.7794 -72.1572 78° East 380 437 10,900 -1,440 Descending Boston Center
06:08PM 42.8039 -72.0214 76° East 351 404 10,100 -900 Descending Boston Center
06:09PM 42.8078 -71.9222 87° East 306 352 9,200 -1,140 Descending Boston Center
06:10PM 42.7989 -71.8033 96° East 282 325 7,900 -1,320 Descending Boston Center
06:11PM 42.7897 -71.7072 97° East 282 325 6,600 -1,440 Descending Boston Center
06:12PM 42.7661 -71.5972 106° East 277 319 5,100 -1,200 Descending Boston Center
06:13PM 42.7489 -71.5100 105° East 271 312 4,300 -840 Descending Boston Center
06:14PM 42.7272 -71.4169 108° East 243 280 3,500 -600 Descending Boston Center
06:15PM 42.7350 -71.3489 81° East 215 247 3,100 -300 Descending Boston Center
06:16PM 42.7806 -71.3453 North 139 160 3,000 -300 Descending Boston Center
06:17PM 42.8183 -71.3672 337° Northwest 144 166 2,500 -720 Descending Boston Center
06:18PM 42.8603 -71.3922 336° Northwest 150 173 1,600 -780 Descending Boston Center
06:19PM 42.8897 -71.4114 335° Northwest 142 163 1,000 -600 Descending Boston Center
06:20PM 42.9294 -71.4333 338° Northwest 137 158 400 4,020 Descending Boston Center
06:21PM 42.9608 -71.4528 336° Northwest 137 158 9,000 8,880 Climbing Boston Center